K0PFX-8 Weather Reports


Display with metric or nautical units.
time (UTC)temp
F
wind
direction
speed
MPH
gust
MPH
rain 1hr
in
rain 24hr
in
rain mn
in
humidity
%
barometer
mb
20171022115037 70 184 6.0 10.0 0.00 0.01 0.00 89 1011.9
20171022113609 70 152 6.0 6.0 0.00 0.01 0.00 89 1011.7
20171022113536 70 152 6.0 6.0 0.00 0.01 0.00 89 1011.7
20171022112037 70 179 8.0 9.0 0.00 0.01 0.00 89 1011.6
20171022110535 70 77 6.0 9.0 0.00 0.01 0.00 89 1011.6
20171022105036 70 111 10.0 6.0 0.00 0.01 0.00 87 1011.7
20171022103535 70 120 6.0 7.0 0.00 0.01 0.00 86 1011.5
20171022102036 69 98 5.0 6.0 0.00 0.01 0.00 85 1011.5
20171022100534 69 139 6.0 5.0 0.00 0.01 0.00 85 1011.4
20171022095035 69 110 2.0 6.0 0.00 0.01 0.00 86 1011.2
20171022093532 69 163 5.0 5.0 0.00 0.01 0.00 86 1011.2
20171022092034 70 148 6.0 6.0 0.00 0.01 0.00 83 1011.5
20171022090531 70 128 5.0 11.0 0.00 0.01 0.00 83 1011.8
20171022085033 70 214 8.0 10.0 0.00 0.01 0.00 82 1011.9
20171022083530 70 153 4.0 6.0 0.00 0.01 0.00 82 1012.0
20171022082032 69 100 6.0 7.0 0.00 0.01 0.00 82 1012.2
20171022080529 69 169 4.0 0.0 0.00 0.01 0.00 82 1011.9
20171022075030 70 150 6.0 7.0 0.00 0.01 0.00 82 1012.0
20171022073526 70 260 6.0 6.0 0.00 0.01 0.00 81 1012.1
20171022072104 70 248 3.0 0.0 0.00 0.01 0.00 81 1012.5
20171022072027 70 248 3.0 0.0 0.00 0.01 0.00 81 1012.5
20171022070525 70 274 5.0 6.0 0.00 0.01 0.00 81 1012.6
20171022065026 70 184 9.0 10.0 0.00 0.01 0.00 80 1012.9
20171022063524 70 183 4.0 5.0 0.00 0.01 0.00 78 1013.4
20171022062025 71 197 5.0 3.0 0.00 0.01 0.00 77 1013.7
20171022060523 71 167 4.0 11.0 0.00 0.01 0.00 76 1013.9
20171022055025 71 150 8.0 6.0 0.00 0.01 0.00 76 1014.1
20171022053521 71 148 5.0 3.0 0.00 0.01 0.00 75 1014.3
20171022052022 71 118 5.0 3.0 0.00 0.01 0.00 74 1014.4
20171022050519 71 181 5.0 5.0 0.00 0.01 0.00 73 1014.6
20171022045020 72 131 3.0 4.0 0.00 0.00 0.01 72 1014.9
20171022043519 72 131 2.0 0.0 0.00 0.00 0.01 71 1015.3
20171022042020 72 210 2.0 0.0 0.00 0.00 0.01 70 1015.5
20171022040517 72 152 4.0 0.0 0.00 0.00 0.01 69 1015.5
20171022035018 73 120 6.0 6.0 0.00 0.00 0.01 67 1015.2
20171022033516 73 143 5.0 2.0 0.00 0.00 0.01 67 1015.5
20171022032017 73 214 4.0 8.0 0.00 0.00 0.01 66 1015.1
20171022030515 73 20 6.0 7.0 0.00 0.00 0.01 65 1014.8
20171022025016 73 190 5.0 5.0 0.00 0.00 0.01 65 1014.7
20171022023515 73 174 4.0 3.0 0.00 0.00 0.01 65 1014.5
20171022022016 73 252 6.0 6.0 0.00 0.00 0.01 64 1014.4
20171022020511 73 101 4.0 3.0 0.00 0.00 0.01 63 1014.2
20171022015012 74 356 8.0 7.0 0.00 0.00 0.01 62 1014.3
20171022013509 74 158 6.0 5.0 0.00 0.00 0.01 61 1014.3
20171022012006 74 195 8.0 8.0 0.00 0.00 0.01 60 1014.4
20171022010459 75 127 6.0 7.0 0.00 0.00 0.01 60 1014.6
20171022005000 75 148 6.0 4.0 0.00 0.00 0.01 60 1014.6
20171022003457 75 228 5.0 8.0 0.00 0.00 0.01 60 1014.8
20171022001959 76 243 4.0 2.0 0.00 0.00 0.01 60 1015.0
20171022000458 76 177 3.0 6.0 0.00 0.00 0.01 60 1015.1
20171021234958 76 94 4.0 3.0 0.00 0.00 0.01 60 1015.2
20171021233455 76 229 3.0 3.0 0.00 0.00 0.01 60 1015.0
20171021231957 76 236 6.0 3.0 0.00 0.00 0.01 59 1015.0
20171021230454 76 138 7.0 0.0 0.00 0.00 0.01 60 1015.3
20171021224956 76 46 5.0 5.0 0.00 0.00 0.01 60 1015.3
20171021224133 77 204 8.0 6.0 0.00 0.00 0.01 59 1015.1
20171021223454 77 204 8.0 6.0 0.00 0.00 0.01 59 1015.1
20171021221955 77 191 6.0 7.0 0.00 0.00 0.01 58 1015.1
20171021220451 77 201 5.0 4.0 0.00 0.00 0.01 59 1015.2
20171021214952 77 173 6.0 4.0 0.00 0.00 0.01 57 1015.0
20171021213449 78 187 5.0 5.0 0.00 0.00 0.01 55 1014.8
20171021211951 78 167 4.0 4.0 0.00 0.00 0.01 57 1014.8
20171021210447 78 127 6.0 4.0 0.00 0.00 0.01 55 1014.8
20171021204948 78 152 7.0 4.0 0.00 0.00 0.01 55 1014.8
20171021203446 77 273 3.0 10.0 0.00 0.00 0.01 59 1015.0
20171021201948 77 68 5.0 6.0 0.00 0.00 0.01 60 1015.2
20171021200445 77 200 9.0 5.0 0.00 0.00 0.01 62 1015.2
20171021194947 76 70 5.0 4.0 0.00 0.00 0.01 65 1015.2
20171021193443 75 218 6.0 6.0 0.00 0.00 0.01 66 1015.5
20171021191945 75 121 3.0 5.0 0.00 0.00 0.01 69 1015.7
20171021190442 74 238 5.0 0.0 0.00 0.00 0.01 70 1016.0
20171021183441 72 242 7.0 4.0 0.01 0.00 0.01 76 1016.3
20171021181942 71 134 8.0 3.0 0.01 0.00 0.01 79 1016.6
20171021180912 70 263 2.0 3.0 0.01 0.00 0.01 87 1016.9
20171021180439 70 263 2.0 3.0 0.01 0.00 0.01 87 1016.9
20171021174941 68 143 4.0 3.0 0.00 0.00 0.01 90 1017.0
20171021173438 67 183 4.0 5.0 0.00 0.00 0.01 92 1017.4
20171021171940 67 267 1.0 4.0 0.00 0.00 0.01 91 1017.7
20171021170437 67 281 2.0 0.0 0.00 0.00 0.01 91 1018.0
20171021164938 68 173 4.0 4.0 0.00 0.00 0.00 84 1018.2
20171021163434 68 212 3.0 4.0 0.00 0.00 0.00 80 1018.2
20171021161935 68 180 4.0 6.0 0.00 0.00 0.00 80 1018.1
20171021160433 67 104 5.0 5.0 0.00 0.00 0.00 81 1018.2
20171021154926 67 218 4.0 0.0 0.00 0.00 0.00 80 1018.3
20171021153421 66 205 7.0 7.0 0.00 0.00 0.00 80 1018.3
20171021151922 66 117 5.0 0.0 0.00 0.00 0.00 82 1018.3
20171021150418 65 97 0.0 2.0 0.00 0.00 0.00 83 1018.3
20171021144919 65 219 1.0 5.0 0.00 0.00 0.00 83 1018.0
20171021143509 64 212 5.0 5.0 0.00 0.00 0.00 84 1017.9
20171021143418 64 212 5.0 5.0 0.00 0.00 0.00 84 1017.9
20171021141920 63 219 1.0 4.0 0.00 0.00 0.00 87 1017.9
20171021140417 63 167 3.0 0.0 0.00 0.00 0.00 85 1017.9
20171021134919 63 170 1.0 3.0 0.00 0.00 0.00 83 1017.8
20171021133417 63 170 3.0 2.0 0.00 0.00 0.00 82 1017.7
20171021131918 63 172 0.0 5.0 0.00 0.00 0.00 82 1017.7
20171021130416 63 169 1.0 5.0 0.00 0.00 0.00 81 1017.5
20171021124918 63 205 3.0 5.0 0.00 0.00 0.00 80 1017.5
20171021123415 63 138 5.0 4.0 0.00 0.00 0.00 78 1017.2
20171021121916 62 129 6.0 3.0 0.00 0.00 0.00 78 1017.3
20171021120415 62 149 3.0 3.0 0.00 0.00 0.00 80 1017.3